Regional Weather Roundup
Issued by NWS

Home | Current Version | Previous Version | Text Only | Print | Product List | Glossary On
Versions: 1 2 3 4 5 6 7 8 9 10 11 12 13 14 15 16 17 18 19 20 21 22 23 24 25 26 27 28 29 30 31 32 33 34 35 36 37 38 39 40 41 42 43 44 45 46 47 48 49 50
000
ASUS43 KMPX 201201
RWRMN
WEATHER ROUNDUP FOR MINNESOTA
NATIONAL WEATHER SERVICE TWIN CITIES/CHANHASSEN MN
700 AM CDT SUN APR 20 2014


NOTE: "FAIR" INDICATES FEW OR NO CLOUDS BELOW 12,000 FEET WITH NO
SIGNIFICANT WEATHER AND/OR OBSTRUCTIONS TO VISIBILITY. N/A MEANS
CURRENT SKY AND/OR WEATHER CONDITIONS ARE NOT AVAILABLE.

MNZ060>063-068>070-201300-
   Twin Cities Metro

CITY           SKY/WX    TMP DP  RH WIND       PRES   REMARKS
TWIN CITIES    MOCLDY    46  45  96 N3        30.03S FOG
6HR MIN TEMP:  46; 6HR MAX TEMP:  51; 6HR PCP:  0.10;

ST PAUL        FOG       46  46 100 CALM      30.04S VSB 1/4
CRYSTAL        PTCLDY    43  43 100 N3        30.04R FOG
BLAINE         FOG       45  45 100 CALM      30.05R VSB<1/4
EDEN PRAIRIE   FOG       49  48  97 N3        30.02S VSB 1/4
6HR MIN TEMP:  49; 6HR MAX TEMP:  54; 6HR PCP:  0.08;

LAKEVILLE      FOG       46  46 100 CALM      30.03S VSB 3/4
SOUTH ST PAUL  FOG       53  51  94 CALM      30.03S VSB<1/4
LAKE ELMO      FOG       45  45 100 CALM      30.05R VSB<1/4
$$
MNZ001>005-007-008-013>017-022>024-027-028-201300-
   Northwest Minnesota

CITY           SKY/WX    TMP DP  RH WIND       PRES   REMARKS
BEMIDJI        CLEAR     27  26  96 CALM      30.04R
HALLOCK        CLOUDY    30  28  93 CALM      30.03R FOG
ROSEAU         CLEAR     30  25  80 SW3       30.03R
WARROAD        CLEAR     30  27  86 SW5       30.04R WCI  25
THIEF RVR FALL CLEAR     32  28  86 CALM      30.04R
CROOKSTON      CLEAR     34  32  93 CALM      30.04S
FOSSTON        CLEAR     28  27  93 CALM      30.03S
DETROIT LAKES  CLEAR     34  32  93 CALM      30.05R
MOORHEAD       CLEAR     34  34 100 CALM      30.04R
PARK RAPIDS    CLEAR     29  28  96 CALM      30.04R
$$
MNZ006-009>011-018-025>026-201300-
   North Central Minnesota

CITY           SKY/WX    TMP DP  RH WIND       PRES   REMARKS
BAUDETTE       CLEAR     30  30 100 CALM      30.03R
FLAG ISLAND    CLEAR     30  27  86 SW6       30.01R WCI  24
INTL FALLS     CLEAR     30  28  92 SW5       30.03R WCI  25
6HR MIN TEMP:  26; 6HR MAX TEMP:  40;

WASKISH        CLEAR     30  30 100 CALM      30.04R
BIG FORK       CLEAR     28  27  93 CALM      30.05R
LONGVILLE      CLEAR     27  27 100 CALM      30.05R
GRAND RAPIDS   CLEAR     30  28  93 CALM      30.04S
CRANE LAKE     CLEAR     23  21  93 CALM      30.06R
ORR            CLEAR     30  30 100 CALM      30.02R FOG
COOK           CLEAR     28  27  93 CALM      30.05R
$$
MNZ012-019>021-037-201300-
   Northeast Minnesota

CITY           SKY/WX    TMP DP  RH WIND       PRES   REMARKS
DULUTH         CLEAR     37  34  89 NW7       30.03R
6HR MIN TEMP:  31; 6HR MAX TEMP:  37;

ELY            CLEAR     28  28 100 CALM      30.04R FOG
HIBBING        CLEAR     27  24  89 CALM      30.04R
EVELETH        CLEAR     27  27 100 CALM      30.05R
DULUTH HARBOR  CLEAR     30  27  86 CALM      30.06S
TWO HARBORS    CLEAR     28  25  86 CALM      30.01S HAZE
SILVER BAY     CLEAR     23  23 100 CALM      30.01R
GRAND MARAIS     N/A     32  31  96 CALM      30.02R
G MARAIS ARPRT CLEAR     37  34  87 NW7       30.01R
$$
MNZ029>031-032-039>041-046>048-054>057-064-201300-
   West Central Minnesota

CITY           SKY/WX    TMP DP  RH WIND       PRES   REMARKS
FERGUS FALLS   CLEAR     45  32  61 CALM      30.01S
WHEATON        CLEAR     37  36  93 SW3       30.07R
MORRIS         CLEAR     37  32  81 E9        30.03S
ALEXANDRIA     CLEAR     39  33  79 E6        30.05S
ELBOW LAKE     FAIR      42  35  76 E10       30.04R
WADENA         CLEAR     30  28  93 CALM      30.05R
GLENWOOD       CLEAR     37  34  87 NE8       30.05S
APPLETON       CLEAR     32  30  93 NE6       30.03S WCI  26
BENSON         CLEAR     39  34  81 E5        30.04S
ORTONVILLE     CLEAR     36  30  80 N5        30.04S
MADISON        CLEAR     37  36  93 NW5       30.03F
WILLMAR        FAIR      36  34  93 NE5       30.05R FOG
$$
MNZ033>034-036-042>043-049>051-058-059-201300-
   Central Minnesota

CITY           SKY/WX    TMP DP  RH WIND       PRES   REMARKS
ST CLOUD       PTCLDY    35  34  96 CALM      30.04S FOG
6HR MIN TEMP:  33; 6HR MAX TEMP:  40;

SAUK CENTRE    FAIR      33  31  92 CALM      30.06R
PAYNESVILLE    PTCLDY    37  33  86 CALM      30.05S
AITKIN         CLEAR     30  27  86 CALM      30.04S
PINE RIVER     CLEAR     28  27  93 CALM      30.08S
BRAINERD       CLEAR     35  29  78 CALM      30.06R
STAPLES        CLEAR     30  30 100 CALM      30.05S
LONG PRAIRIE   FAIR      34  32  93 CALM      30.06R
LITTLE FALLS   CLEAR     32  30  93 CALM      30.06R FOG
LITCHFIELD     PTCLDY    41  39  93 CALM      30.04F
BUFFALO        PTCLDY    41  39  90 N3        30.05S FOG
MAPLE LAKE     PTCLDY    40  39  97 NW5       30.05S
$$
MNZ037-044-045-052-053-201300-
   East Central Minnesota

CITY           SKY/WX    TMP DP  RH WIND       PRES   REMARKS
PRINCETON      PTCLDY    32  30  93 CALM      30.05S FOG
MORA           FOG       30  28  93 CALM      30.07R VSB 1/2
CAMBRIDGE      HAZE      34  27  75 CALM      30.04R VSB<1/4
RUSH CITY      FOG       31  30  96 CALM      30.05R VSB 3/4
HINCKLEY       FOG       30  30 100 CALM      30.06R VSB<1/4
CLOQUET        CLEAR     32  30  93 NW3       30.04R FOG
MCGREGOR       CLEAR     32  30  93 CALM      30.06R
$$
MNZ071>073-080-081-089-090-097-098-201300-
   Southwest Minnesota

CITY           SKY/WX    TMP DP  RH WIND       PRES   REMARKS
MONTEVIDEO     CLEAR     36  28  75 N3        30.05R
GRANITE FALLS  CLEAR     32  30  90 W7        30.05S WCI  26
CANBY          CLEAR     37  34  89 W3        30.05S
MARSHALL       CLEAR     37  30  75 W6        30.02F
REDWOOD FALLS  CLEAR     45  43  93 NW3       30.02S FOG
OLIVIA         FOG       37  36  93 N8        30.03R VSB 3/4
PIPESTONE      PTCLDY    45  37  76 NE5       30.01S
WINDOM         PTCLDY    48  37  66 NE3       30.01S
WORTHINGTON    PTCLDY    48  36  61 E7        30.02F
JACKSON        PTCLDY    45  41  87 NE6       30.01S
TRACY          PTCLDY    44  36  72 CALM      30.03S
SLAYTON        PTCLDY    45  41  85 N6        30.02S
$$
MNZ065>067-074>077-082>085-091>093-201300-
   South Central Minnesota

CITY           SKY/WX    TMP DP  RH WIND       PRES   REMARKS
MANKATO        PTCLDY    52  45  76 E5        30.01S
NEW ULM        PTCLDY    50  46  87 CALM      30.02S
ST JAMES       PTCLDY    48  43  81 E3        30.02S
FAIRMONT       PTCLDY    46  43  87 N5        30.02S
GLENCOE        FOG       44  41  89 N9        30.04R VSB 1/2
FARIBAULT      HAZE      52  46  82 E3        30.03S VSB 1/4
OWATONNA       MOCLDY    55  48  76 S3        30.02R
WASECA         PTCLDY    52  50  93 E3        30.04R FOG
ALBERT LEA     CLOUDY    55  50  82 S10       30.02S
$$
MNZ078>079-086>088-094>096-201300-
   Southeast Minnesota

CITY           SKY/WX    TMP DP  RH WIND       PRES   REMARKS
ROCHESTER      LGT RAIN  53  47  79 S9        30.05R
6HR MIN TEMP:  53; 6HR MAX TEMP:  59; 6HR PCP:  0.13;

RED WING       CLOUDY    48  48 100 CALM      30.03R FOG
STANTON        FOG       48  47  94 CALM      30.01S VSB 1/4
DODGE CENTER   CLOUDY    55  50  82 S9        30.03S
WINONA           N/A    N/A N/A N/A MISG        N/A
AUSTIN         CLOUDY    55  46  71 S7        30.04S
PRESTON        CLOUDY    55  44  68 S7        30.07S
$$
ABBREVIATIONS USED IN REMARKS
   TC - TEMPERATURES IN CELSIUS
  WCI - WIND CHILL INDEX
   HX - HEAT INDEX
  VSB - VISIBILITY
$$



USA.gov is the U.S. government's official web portal to all federal, state and local government web resources and services.